Location: Betra
(48.4113°N, 8.6634°E)
Time: 16:16:59
(UTC+00:00)

Cosmos 1782 Rocket - Pass Details

Date: 23 May 2024
Orbit: 602 x 629 km, 82.5° (Epoch: 16 June)

Event Time Altitude Azimuth Distance (km) Brightness Sun altitude
Rises 01:50:40 0° 343° (NNW) 2,899 7.6 -13.4°
Reaches altitude 10° 01:53:00 10° 336° (NNW) 1,984 6.6 -13.2°
Maximum altitude 01:57:04 38° 268° (W) 941 4.2 -12.8°
Enters shadow 01:59:42 19° 210° (SSW) 1,470 4.8 -12.5°
